Location: Sungai Bunut
(2.6333°N, 113.7333°E)
Time: 15:41:04
(UTC+00:00)

Altair - Pass Details

Date: 10 December 2023
Orbit: 1501 x 1682 km, 47.2° (Epoch: 24 February)

Event Time Altitude Azimuth Distance (km) Brightness Sun altitude
Rises 05:33:27 0° 353° (N) 4,641 9.8 58.5°
Reaches altitude 10° 05:39:22 10° 22° (NNE) 3,644 9.3 57.6°
Maximum altitude 05:42:31 12° 43° (NE) 3,481 9.2 57.1°
Drops below altitude 10° 05:45:40 10° 63° (ENE) 3,644 9.3 56.7°
Sets 05:51:31 0° 92° (E) 4,642 9.8 55.7°
